Theta_e
310 310 309 309 309 308 308 308 308 307 308 309 307 306 305 305 305 306 309 311 314 314 314 316 316 319 317 315 317 316 318 318 322 321 318 318 322 323 328 328 331 333 335 337 334 336 340 334 336 340 337 335 336 331
305 306 307 309 309 308 307 307 308 308 309 308 306 306 306 305 305 306 309 308 310 313 314 317 316 316 317 317 315 313 317 316 321 324 325 325 329 322 324 329 324 325 327 335 336 339 332 328 329 330 326 326 327 328
304 303 303 305 308 309 307 308 307 308 310 310 309 308 306 306 306 307 307 307 312 312 315 317 319 322 322 321 320 313 312 316 315 319 320 321 321 318 321 322 325 323 324 333 331 331 329 327 326 325 324 325 328 326
304 304 304 303 305 308 307 307 307 307 309 311 310 306 306 307 307 307 307 309 308 311 320 320 322 319 322 322 322 320 314 313 314 316 316 319 321 319 321 321 322 323 325 324 329 327 328 326 326 326 325 324 325 325
304 304 304 304 305 305 306 306 306 306 306 308 310 308 308 308 306 306 306 310 308 313 319 319 319 322 321 322 321 320 317 315 316 317 319 321 319 322 321 321 323 324 326 327 329 325 323 324 324 325 324 325 325 331
304 304 304 304 305 305 305 305 305 305 306 307 308 310 310 307 305 309 314 316 314 312 317 321 318 318 321 322 320 320 317 316 317 318 319 320 320 321 322 323 322 326 324 324 326 325 324 326 324 325 326 326 331 328
304 305 304 304 304 304 305 305 305 306 307 308 309 312 313 306 306 309 318 319 314 314 318 321 321 319 322 321 319 319 320 319 318 318 321 320 321 319 321 323 325 326 325 324 323 322 323 324 326 325 326 328 333 332
304 304 304 304 304 304 305 305 306 307 309 310 313 315 313 310 311 313 317 314 313 315 317 322 322 321 321 320 321 317 320 319 319 319 320 321 320 321 324 322 327 326 324 324 324 321 322 322 322 323 325 327 330 331
303 303 303 304 303 304 305 305 306 308 310 316 317 314 311 312 315 321 320 317 315 318 321 323 323 324 322 322 321 323 323 325 321 322 321 322 322 324 323 327 325 325 325 324 323 322 322 321 324 325 326 327 329 330
303 303 303 303 303 304 305 305 307 310 313 316 316 317 319 318 316 317 317 316 317 316 316 319 317 319 318 324 326 322 322 321 323 322 321 323 322 321 325 322 322 321 321 321 322 324 323 323 324 327 327 326 328 328
303 303 303 304 304 305 306 306 308 309 313 312 309 312 313 313 314 317 320 321 321 324 319 319 317 315 316 326 326 324 326 326 327 323 324 324 330 327 322 320 319 319 319 319 318 320 321 321 323 325 326 326 327 327
304 304 305 305 305 306 307 309 308 308 308 308 307 308 311 312 315 321 325 323 325 327 324 324 323 320 319 321 323 324 327 324 328 324 329 334 330 325 323 323 321 319 320 320 320 319 321 323 323 323 325 326 326 327
305 306 307 308 308 308 308 308 307 307 309 311 310 312 317 316 316 324 324 323 325 324 326 324 325 324 322 321 323 326 329 326 323 326 329 330 329 325 323 323 322 320 321 321 321 322 322 323 324 324 325 326 325 325
306 306 307 308 307 308 307 307 307 308 310 313 320 318 322 326 323 320 324 325 326 328 326 326 326 328 327 326 325 329 326 326 330 330 330 329 324 324 323 322 321 322 322 322 321 320 323 324 324 325 325 324 324 324
306 307 307 307 309 308 307 307 308 308 311 316 317 317 319 320 321 322 322 323 323 322 320 320 322 327 327 327 325 326 329 330 328 329 331 328 324 324 322 322 321 322 322 322 323 323 324 324 323 323 324 324 323 322
305 306 309 309 308 306 306 307 309 311 314 314 316 318 317 317 319 319 319 323 323 324 323 323 324 327 327 326 328 329 330 329 328 328 329 327 325 324 322 321 322 323 323 322 323 324 324 323 322 322 323 322 321 320
304 305 307 307 307 306 307 307 310 314 315 315 315 313 315 315 316 318 320 322 322 322 325 324 323 326 323 326 328 326 328 328 329 329 328 325 323 322 320 320 323 324 323 323 323 324 323 323 322 321 318 320 319 322
304 304 305 306 306 306 307 308 310 314 317 316 315 314 313 313 315 316 318 321 321 320 320 323 324 327 328 328 328 326 325 324 327 328 327 325 323 322 321 321 323 323 321 321 322 321 321 319 316 317 319 319 321 321
304 304 304 305 304 304 307 310 311 314 315 313 312 311 312 312 313 315 317 318 319 320 321 321 324 326 325 323 322 323 324 322 321 326 327 325 323 321 321 324 324 320 318 319 319 319 318 318 317 318 319 320 320 321
303 303 304 304 304 305 307 309 311 312 315 311 309 310 311 313 313 314 316 317 318 321 323 324 324 322 322 321 320 321 323 320 321 326 325 322 322 322 321 323 323 322 318 319 319 320 317 316 317 317 318 319 320 320
304 304 305 304 304 304 305 307 310 311 310 311 311 311 314 315 317 318 318 317 318 321 319 320 322 321 318 320 320 320 322 321 320 322 323 322 323 322 321 324 323 323 319 317 317 316 320 317 317 317 318 318 318 319
304 304 305 304 305 306 305 306 308 308 310 309 310 311 311 313 316 318 318 320 319 318 316 317 317 318 318 320 321 321 320 321 320 321 321 320 321 320 320 322 322 320 321 321 316 316 319 319 319 319 319 319 319 320
304 305 306 305 307 306 306 307 310 311 314 315 313 315 315 319 320 319 319 318 318 316 317 318 318 319 318 320 322 323 320 319 318 318 320 321 320 322 323 323 323 321 318 319 319 318 319 320 321 321 320 321 321 321
304 306 307 308 307 307 308 310 310 312 314 315 316 319 318 318 320 322 322 319 317 317 317 318 318 319 321 322 322 320 320 319 319 319 321 321 315 317 322 322 322 323 321 321 319 319 320 320 321 320 318 319 320 320
305 305 306 305 308 309 311 313 314 314 316 316 317 317 317 320 322 324 324 321 323 322 322 323 322 323 323 322 322 322 323 322 320 319 321 320 320 318 318 320 320 320 321 321 320 320 320 320 320 321 320 319 319 318
305 307 306 310 311 311 313 314 315 316 317 317 318 317 320 322 324 324 324 323 324 323 323 321 323 322 323 322 321 320 323 322 321 319 320 321 321 318 315 316 316 319 320 320 320 320 320 320 319 318 317 318 318 318
306 308 308 307 311 312 312 313 312 313 315 316 318 321 322 323 324 323 321 321 322 320 320 320 322 321 321 321 322 321 320 322 321 321 321 322 323 322 320 319 318 321 320 320 319 319 320 319 319 319 319 318 318 317
306 307 311 312 310 311 314 313 314 315 315 315 319 323 324 322 322 321 320 319 320 321 321 321 321 321 322 321 321 320 320 323 323 321 322 321 321 321 320 321 321 321 321 321 321 320 320 320 321 320 319 319 318 318
307 306 306 308 312 313 313 312 313 312 314 318 319 320 321 319 319 319 318 318 318 320 320 321 320 322 322 321 320 319 320 322 320 320 319 317 317 321 321 320 320 321 321 320 320 320 320 320 321 319 318 319 319 318
306 305 308 310 312 313 312 310 310 310 310 311 313 314 314 314 316 317 318 319 319 318 319 319 321 322 321 321 323 324 324 324 324 322 317 316 318 321 321 321 321 321 321 320 319 319 320 321 321 321 320 316 318 319
309 310 310 309 309 309 309 309 310 311 311 312 312 314 314 314 315 316 316 317 317 318 319 320 323 324 323 323 322 322 322 322 322 323 322 320 320 321 320 320 320 319 319 319 320 320 320 320 321 321 321 318 316 319
310 309 309 310 310 310 310 311 312 312 313 313 314 314 315 315 316 316 318 318 318 317 318 319 317 319 321 320 320 322 322 321 319 321 320 320 320 320 321 319 320 320 319 319 320 320 321 321 320 320 320 319 318 317
311 311 310 311 313 314 314 313 315 316 315 316 315 315 316 317 319 317 318 319 319 318 318 319 318 318 320 320 320 322 322 320 321 321 321 321 320 321 321 320 320 320 320 319 320 320 321 321 320 320 319 320 320 321
Wind_Speed
19 20 20 20 21 22 23 22 21 21 21 22 21 21 20 19 19 20 4 7 4 2 7 5 3 1 5 2 1 5 4 5 5 5 3 3 3 4 1 3 6 2 1 1 2 3 2 6 3 6 5 3 3 1
19 19 20 20 21 22 22 23 22 22 22 21 20 21 20 18 17 15 6 8 11 5 7 22 29 35 21 22 1 3 5 3 3 3 1 1 2 2 1 2 5 4 2 3 3 5 5 4 7 3 4 3 2 2
19 21 22 20 20 21 22 23 24 22 22 22 20 20 20 18 16 11 11 13 5 3 6 2 7 16 18 29 26 3 3 2 3 4 3 2 2 3 0 3 2 5 0 5 5 1 5 6 4 5 5 4 4 4
18 20 22 22 20 21 22 22 23 25 24 22 21 20 21 21 18 13 9 8 7 5 2 6 12 10 5 13 23 23 12 3 1 3 2 2 2 3 3 3 4 4 3 5 3 3 1 5 3 3 5 6 7 8
18 20 21 21 23 23 22 23 24 25 26 25 23 23 22 21 17 15 17 11 10 1 2 5 22 10 15 12 14 19 5 2 2 2 2 3 3 1 2 2 2 1 4 4 3 5 6 4 3 1 6 5 7 6
19 20 22 22 22 24 24 25 25 26 26 27 26 22 20 17 13 5 3 2 6 6 2 4 6 7 9 13 12 6 4 3 3 4 3 3 3 3 2 2 3 2 6 6 4 4 4 1 7 7 9 8 7 7
19 20 21 22 23 23 25 26 27 28 29 28 24 21 19 12 8 5 3 4 1 5 1 4 5 5 9 4 1 1 1 2 3 2 2 3 3 3 3 4 6 5 8 7 4 5 6 6 2 4 6 8 12 8
20 20 21 23 24 24 25 27 28 30 30 27 23 20 13 8 6 6 4 7 10 3 0 2 5 5 3 1 1 2 2 2 2 4 1 2 3 2 2 3 6 6 8 7 7 6 5 2 6 7 8 7 6 2
20 21 22 24 25 25 25 27 29 31 30 22 21 10 1 2 2 2 3 2 5 1 2 2 2 4 4 2 3 1 3 2 1 3 3 4 1 3 6 8 7 5 5 6 5 6 6 7 7 6 6 6 5 3
20 20 21 22 23 24 24 26 28 30 24 17 6 2 1 2 9 7 0 1 2 2 1 3 2 4 3 3 3 2 2 2 1 5 1 4 4 3 7 8 8 7 7 8 7 4 3 6 5 3 3 2 1 3
20 20 21 21 22 22 22 24 26 25 11 9 8 2 10 14 2 1 2 2 2 3 3 4 6 4 3 0 2 1 1 0 1 5 4 2 1 1 3 6 7 8 8 6 5 4 7 6 5 4 3 3 3 7
20 20 20 20 20 19 20 22 18 15 12 13 14 13 7 3 1 2 3 3 4 4 2 2 5 5 3 2 2 3 0 2 4 2 1 3 2 2 7 7 7 8 8 7 7 5 4 6 7 7 5 2 6 11
19 19 20 19 18 19 16 11 13 16 18 1 2 2 2 2 1 4 3 3 2 1 2 4 4 3 4 3 1 1 1 4 1 1 3 4 4 2 4 4 6 6 8 6 6 6 8 4 7 6 4 2 6 10
19 19 19 18 17 8 9 12 15 16 5 2 3 5 4 4 4 4 3 3 3 2 3 1 3 3 4 1 2 2 4 2 2 2 5 3 6 5 4 3 4 4 5 3 4 4 6 5 4 6 3 0 4 7
17 19 19 16 3 9 14 16 15 9 3 3 2 4 5 4 3 3 3 2 2 4 3 2 3 2 3 3 1 1 2 3 4 4 3 4 7 6 4 2 4 3 3 3 4 2 1 2 3 3 3 4 3 6
15 16 3 4 9 14 16 18 8 3 4 3 4 3 4 3 3 5 5 2 2 2 2 3 3 1 5 2 2 4 2 4 3 2 3 5 6 4 3 4 3 4 4 2 3 3 1 2 2 4 4 3 5 8
10 5 7 9 15 19 15 6 3 4 4 4 4 4 5 4 5 5 2 2 1 2 2 2 2 3 2 2 3 4 3 2 2 2 1 5 6 5 4 5 5 4 3 4 4 5 2 2 2 4 3 2 5 7
8 13 13 7 10 13 4 5 3 3 6 5 3 4 4 3 3 3 3 1 2 3 3 3 2 2 3 3 2 3 3 2 3 3 2 2 5 5 7 5 4 3 4 5 4 5 5 6 6 3 3 4 2 4
14 14 15 16 12 5 3 3 4 3 5 4 4 3 3 4 4 4 4 5 6 4 4 2 3 3 3 2 2 3 3 3 2 3 4 5 9 8 8 8 7 4 3 1 2 5 6 8 5 5 8 4 9 8
14 15 13 11 6 3 3 3 3 3 3 3 3 4 3 4 4 3 6 4 4 4 5 4 4 4 4 4 4 3 3 4 1 2 3 2 8 8 9 9 8 8 5 4 2 2 3 6 3 5 10 8 12 14
6 5 2 8 7 6 3 3 3 3 4 3 3 3 4 3 3 4 5 3 3 4 4 4 4 5 6 9 18 16 8 5 2 2 3 4 9 13 10 8 12 13 7 5 6 5 7 5 5 1 4 2 0 6
4 4 2 6 3 5 3 6 3 5 3 4 4 3 4 3 4 4 3 3 4 5 4 4 4 4 5 5 7 14 11 11 7 2 7 2 3 2 4 11 11 7 12 11 11 10 11 9 7 9 8 8 8 11
2 2 3 5 3 3 4 3 3 3 3 3 4 3 3 3 3 2 3 4 4 5 8 8 12 14 8 13 11 13 11 8 2 3 5 5 10 21 21 18 20 14 7 12 14 12 13 12 12 11 9 7 8 10
2 2 2 3 4 3 2 3 3 3 3 3 2 4 4 3 2 1 3 3 4 3 4 7 5 4 3 4 4 4 15 12 6 10 10 12 4 14 24 26 23 24 24 18 19 14 13 12 16 16 11 10 9 9
2 3 3 4 3 3 3 3 4 3 3 3 3 3 3 3 2 3 3 3 4 1 1 2 4 4 4 3 5 13 23 21 9 6 19 21 19 17 10 9 18 22 22 19 21 19 16 15 16 23 22 19 17 15
4 4 5 4 3 3 3 3 1 2 3 2 3 4 2 2 3 3 2 4 1 1 1 1 3 2 2 3 1 3 13 20 22 8 21 18 13 14 6 4 2 7 15 22 22 22 21 18 17 21 21 21 17 15
4 4 4 4 3 2 2 3 3 2 4 3 3 3 3 2 2 1 3 2 2 3 5 4 5 5 4 5 9 12 15 12 26 26 22 16 19 21 21 13 9 17 14 17 20 20 17 15 20 24 17 17 25 21
4 3 4 3 3 4 3 2 2 3 3 4 3 2 6 2 2 3 2 9 16 17 20 17 16 17 15 12 13 17 15 4 21 24 21 7 10 16 19 25 25 11 16 11 12 13 9 6 10 20 20 22 23 24
4 3 2 6 4 3 4 5 4 3 3 2 1 2 3 3 3 4 21 18 12 14 13 11 18 11 12 12 14 11 11 7 3 7 7 4 1 7 16 20 17 19 19 15 9 6 5 8 11 10 10 24 23 18
5 5 3 5 4 5 5 6 4 5 5 5 4 8 9 7 18 22 24 19 11 9 15 15 12 7 7 5 6 12 13 15 12 10 4 5 11 17 18 19 17 14 13 14 10 5 3 5 11 12 13 14 14 9
3 2 4 6 5 7 9 7 8 9 8 9 9 10 12 9 19 23 22 25 23 20 11 9 8 8 8 2 4 4 7 13 14 12 20 18 18 21 18 14 12 9 15 13 10 8 4 3 6 12 12 12 17 14
3 4 4 5 8 8 7 7 8 9 10 9 10 8 9 5 6 5 11 19 19 9 15 14 5 3 0 6 9 9 16 15 21 3 28 27 20 19 18 16 10 7 11 15 16 12 8 9 11 15 7 5 10 18
4 4 4 5 3 3 4 3 4 4 4 3 5 8 8 5 5 4 6 12 19 20 18 17 11 8 10 10 8 7 15 13 14 14 11 12 17 17 20 20 15 14 11 11 12 14 14 19 20 21 13 9 15 17
Wind_Direction
337 339 344 347 347 346 346 345 344 342 340 341 341 343 345 347 348 350 317 56 16 270 279 239 271 260 342 31 84 285 25 354 20 56 107 237 200 247 343 265 297 76 349 29 81 78 112 312 348 91 214 295 267 1
335 332 335 338 342 344 346 347 343 340 337 338 343 341 341 342 340 345 298 310 319 209 249 290 278 269 245 231 197 314 184 228 209 80 10 103 326 357 127 311 340 28 181 157 107 161 206 337 118 162 171 204 261 194
340 341 338 332 334 337 340 343 348 342 338 335 340 337 335 335 332 326 302 319 332 295 295 289 253 289 257 232 226 155 302 216 1 174 171 208 257 129 354 267 359 329 37 126 89 23 138 85 44 32 34 15 337 337
339 341 341 340 334 334 337 338 341 344 340 338 337 336 333 326 319 304 277 253 291 270 278 282 333 322 275 243 222 225 232 303 114 80 128 155 188 161 214 225 135 226 42 97 42 37 55 13 27 22 14 9 355 347
335 339 339 342 343 337 335 335 336 338 338 338 336 334 330 324 316 306 287 286 224 182 266 284 308 293 322 225 212 207 177 124 100 19 70 234 232 95 305 67 7 306 174 119 181 221 157 240 290 19 42 354 6 72
328 332 335 337 337 339 340 338 335 335 334 332 330 330 329 323 322 328 339 75 178 211 282 309 294 294 298 201 177 175 185 164 132 152 222 264 255 104 105 180 278 140 80 129 153 177 139 71 61 42 48 23 74 93
319 325 328 331 332 334 335 336 335 333 332 330 327 325 323 315 292 212 209 138 197 325 288 308 300 267 227 137 106 180 163 182 144 195 215 207 289 91 123 182 207 142 113 107 114 114 44 53 47 31 43 45 93 96
314 317 321 324 328 329 330 333 334 333 332 330 322 318 309 304 291 284 299 248 243 257 25 274 274 328 151 132 239 179 172 57 286 203 337 185 334 85 227 236 158 123 100 79 74 87 123 101 30 34 43 54 81 105
311 312 315 318 322 325 327 332 334 335 335 334 323 317 218 229 236 280 273 232 196 210 240 275 249 272 352 294 230 322 144 143 266 188 234 110 272 237 216 154 137 140 121 126 86 77 71 69 80 58 57 40 70 314
312 313 314 316 319 324 326 332 335 336 339 336 340 353 340 57 313 298 164 32 11 266 230 238 263 271 27 359 308 6 17 184 121 247 69 151 234 289 156 158 140 128 103 95 79 23 44 89 89 101 82 73 136 314
314 315 316 316 319 322 326 332 335 340 347 2 360 318 315 323 277 224 244 169 185 239 213 232 196 222 293 61 254 138 233 275 87 266 144 188 105 225 182 102 96 95 93 83 112 99 123 151 145 127 89 64 2 342
313 316 316 317 319 322 326 330 337 344 335 314 288 302 293 300 292 245 222 222 178 230 235 204 237 188 259 123 87 319 133 31 237 280 114 123 249 168 118 97 76 71 65 57 58 42 32 138 124 115 120 62 357 351
312 315 317 319 322 322 326 342 344 331 328 298 233 258 172 262 356 217 236 263 255 283 7 11 335 326 350 45 24 70 221 240 5 21 226 200 169 129 114 104 82 71 61 49 44 70 57 78 99 109 119 68 2 353
307 311 317 319 322 333 340 337 339 336 308 264 235 295 204 214 229 200 225 231 270 91 122 127 254 91 289 135 192 204 242 9 265 237 221 196 192 170 146 149 121 88 79 54 14 38 92 111 111 126 140 283 345 351
307 310 313 306 322 345 337 326 325 314 269 269 280 238 241 265 318 300 311 33 343 126 103 59 33 83 305 285 258 29 276 243 220 230 210 155 183 159 144 119 106 83 46 18 359 106 127 129 166 194 217 212 308 335
307 316 322 343 327 325 330 327 313 214 256 242 244 274 289 334 313 339 342 340 312 45 111 76 105 18 246 225 289 226 239 223 254 228 151 142 150 138 120 112 94 69 64 35 349 327 267 197 233 250 230 228 327 324
301 254 317 307 311 314 317 289 262 223 233 233 248 221 233 254 258 285 278 280 182 88 137 169 140 181 308 265 234 214 223 216 221 95 342 145 147 139 127 101 94 64 39 3 1 3 355 22 57 54 123 291 315 318
254 282 292 292 337 332 291 222 251 255 239 241 250 249 249 232 245 284 287 204 118 175 135 198 122 194 237 221 10 311 317 295 152 146 194 167 138 153 139 143 131 85 37 26 41 42 38 34 50 35 321 330 11 75
274 278 276 288 311 314 289 245 219 263 248 260 260 257 244 247 243 235 247 234 207 153 128 155 172 203 232 239 235 327 346 299 259 236 173 190 168 165 153 161 142 126 106 81 91 62 57 59 59 79 50 116 118 97
283 282 277 268 238 232 261 258 253 259 269 272 297 279 238 228 230 226 256 236 180 173 218 194 194 197 194 217 205 241 258 281 221 144 134 211 188 178 184 170 178 199 194 205 154 116 74 70 24 10 40 86 123 90
294 306 269 189 191 222 291 293 260 246 288 270 283 255 258 264 243 241 241 199 192 201 217 208 195 211 193 182 194 224 219 220 228 147 203 207 216 200 210 211 201 202 218 216 227 243 222 209 180 316 340 334 293 303
249 257 153 184 231 201 247 238 257 298 270 259 309 216 251 251 235 229 206 196 211 222 206 191 201 212 231 198 222 239 232 206 162 147 48 221 159 211 228 212 188 204 224 225 202 205 212 220 207 186 210 248 271 294
255 231 207 185 237 225 260 229 248 239 262 263 313 273 263 257 234 138 209 217 224 208 206 212 214 214 216 249 238 214 204 208 204 189 223 338 287 226 224 227 217 206 222 225 218 212 230 207 228 232 240 254 274 289
213 238 232 213 199 259 246 235 224 247 261 259 252 271 286 251 280 209 250 253 235 193 196 205 177 208 233 216 192 201 207 202 208 261 265 275 235 234 218 226 228 223 223 225 217 217 219 220 226 237 239 240 245 254
236 242 215 243 213 226 238 239 214 217 252 247 269 262 264 273 251 220 231 283 331 130 71 124 144 186 191 208 220 225 223 205 196 207 241 249 244 240 217 237 223 229 230 213 211 214 230 224 229 229 238 245 251 247
233 216 206 213 191 217 232 263 259 299 296 269 257 273 303 305 278 252 344 322 270 242 164 153 157 195 181 166 201 228 235 211 209 209 247 237 234 203 194 184 222 225 205 207 203 206 226 232 230 233 226 236 227 215
244 245 217 225 244 188 257 247 245 248 267 254 247 256 246 254 295 253 282 279 246 244 213 232 234 232 235 230 255 282 298 240 207 220 235 249 251 243 222 206 211 231 208 203 217 208 216 222 231 242 249 236 223 226
241 263 242 193 204 204 241 233 238 245 239 219 240 306 336 295 302 326 313 303 298 295 283 274 269 257 255 270 291 301 314 258 227 226 239 268 198 201 224 241 232 213 164 148 123 117 111 134 268 258 234 249 240 229
238 239 254 263 249 210 209 212 232 238 250 310 309 253 228 238 243 224 269 268 256 273 270 297 309 281 265 280 296 287 289 287 199 191 195 165 112 142 165 178 186 188 183 170 165 142 110 41 19 349 334 238 231 227
241 184 226 238 224 229 214 200 219 236 254 256 263 292 292 281 279 285 278 285 274 260 296 275 276 239 230 250 305 317 319 324 277 223 211 174 199 181 177 166 170 186 200 207 214 196 122 17 11 356 342 306 277 227
280 222 214 229 246 250 258 260 254 253 253 255 255 259 272 281 290 284 271 273 271 271 263 241 221 218 226 220 9 333 335 355 342 285 244 216 196 187 194 199 208 221 224 217 178 120 89 37 355 322 310 296 267 253
231 221 223 259 274 271 263 257 250 254 258 256 257 254 263 269 271 275 260 243 243 248 266 272 240 208 252 332 334 347 351 341 353 258 200 200 208 203 190 190 189 172 185 191 190 199 223 243 260 274 264 336 291 258
211 235 257 278 263 240 224 203 230 260 210 222 230 228 238 226 240 256 261 242 228 229 245 253 267 291 253 309 298 339 321 302 303 336 337 229 228 212 195 197 194 198 210 212 220 228 246 257 259 270 261 280 298 289